sat.trackr.live / text

‹ back to catalog

STARLINK-33664

NORAD 63415 · 2025-065S

PAYLOAD ACTIVE UNKNOWN

§ Identity

Operator
Country
US
Launch date
2025-03-31
Launch site
AFETR
Launch vehicle
Mass (kg)
RCS (m²)

Purposes: comms

External: N2YO · Heavens-Above · Gunter

§ Orbital elements

Epoch: 2026-05-25T02:01:20.508096Z

Period
94.27 min
Inclination
43.0043°
Eccentricity
0.0001246
Mean motion
15.27592851 rev/d
Perigee alt
482.2 km
Apogee alt
483.9 km
Semi-major
6,861.1 km
B*
4.1341e-4
RAAN
35.5850°
Arg perigee
263.3479°
Mean anomaly
96.7231°
Rev number
6,452

§ Raw data

STARLINK-336641 63415U 25065S   26145.08426514  .00011136  00000+0  41341-3 0  99922 63415  43.0043  35.5850 0001246 263.3479  96.7231 15.27592851 64528

JSON: /api/v1/satellites/63415 · /tle

For live sub-satellite position, see the globe view (requires WebGL).

§ Visibility from observer

Set your observer location to see the next 7 days of passes ≥ 10°. The values pass through the URL so the page stays shareable.

No JS? Fill the form by hand. The geolocation button needs JavaScript.